Regional Weather Roundup
Issued by NWS Newport/Morehead, NC

Current Version | Previous Version | Text Only | Print | Product List | Glossary Off
Versions: 1 2 3 4 5 6 7 8 9 10 11 12 13 14 15 16 17 18 19 20 21 22 23 24 25 26 27 28 29 30 31 32 33 34 35 36 37 38 39 40 41 42 43 44 45 46 47 48 49 50
047 ASUS42 KMHX 222213 RWRMHX WEATHER ROUNDUP FOR EASTERN NORTH CAROLINA NATIONAL WEATHER SERVICE NEWPORT/MOREHEAD CITY NC 600 PM EDT WED MAR 22 2017 NOTE: "FAIR" INDICATES FEW OR NO CLOUDS BELOW 12,000 FEET WITH NO SIGNIFICANT WEATHER AND/OR OBSTRUCTIONS TO VISIBILITY NCZ015>017-031-032-045>047-102-103-222300- NORTH COAST CITY SKY/WX TMP DP RH WIND PRES REMARKS EDENTON SUNNY 54 18 24 NE8G16 30.26R ELIZABETH CITY SUNNY 49 25 39 N17 30.27R KITTY HAWK NOT AVBL MANTEO SUNNY 47 23 38 N21G28 30.27R $$ NCZ045>047-081-094-103-104-222300- CENTRAL COAST CITY SKY/WX TMP DP RH WIND PRES REMARKS FRISCO SUNNY 48 28 46 N14G26 30.26R $$ NCZ095-097-098-100-101-222300- SOUTHERN COAST CITY SKY/WX TMP DP RH WIND PRES REMARKS BEAUFORT SUNNY 53 32 44 NE16G24 30.22R CEDAR ISLAND NOT AVBL JACKSONVILLE MOSUNNY 60 31 33 NE15 30.19R PINEY ISLAND PTCLDY N/A N/A N/A NE21G28 30.22R WILMINGTON CLOUDY 58 46 64 E9G20 30.18R $$ NCZ011>013-027>030-043-044-078>080-089-090>093-098-222300- COASTAL PLAIN CITY SKY/WX TMP DP RH WIND PRES REMARKS AHOSKIE NOT AVBL CLINTON PTSUNNY 62 37 39 NE12G17 30.19R ELIZABETHTOWN MOSUNNY 63 42 46 NE5 30.17R GOLDSBORO MOSUNNY 59 11 15 N12 30.20R GREENVILLE SUNNY 55 18 22 N13 30.25R HAVELOCK NOT AVBL KENANSVILLE MOSUNNY 59 27 29 NE12G21 30.20R KINSTON MOSUNNY 57 21 24 N16G25 30.23R NEW BERN SUNNY 56 21 25 N13 30.23R RICHLANDS SUNNY 59 29 31 NE14 30.20R ROCKY MOUNT SUNNY 56 19 23 NE13 30.24R WASHINGTON MOSUNNY 55 20 26 N15 30.23R WHITEVILLE MOSUNNY 65 38 37 N5 30.15R $$ AMZ130-135-150-152-154-156-158-170-250-252-270-ANZ085-086-088-633-658-670-222300- MARINE OBSERVATIONS STATION/POSITION TIME TEMP WIND PRES WAVE SWELL AIR SEA DIR/SP/G HT/PER HT/PER (UTC) (F) (DEG/KT/KT) (MB) (FT/S) (FT/S) CHESAPEAKE LIGHT NOT AVBL 64 E VA BEACH 2150 45 51 10/ 19/ 23 1023.7 9/ 6 3/11 DUCK 2136 45 49 10/ 22/ 25 1023.5 2 E DUCK 2200 47 N/A 7/ 6 2/11 OREGON INLET 2136 46 52 360/ 16/ 25 1024.4 13E OREGON INLT NOT AVBL HATTERAS CG 2148 10/ 25/ 29 N/A DIAMOND BUOY 2150 48 73 10/ 27/ 35 1023.4 10/ 7 CAPE LOOKOUT 2200 51 40/ 28/ 30 1023.2 BEAUFORT LAB 2136 53 53 50/ 10/ 18 1021.9 30 SE NEW RVR IN 2108 55 70/ 19/ 27 1021.6 30 SE NEW RVR IN 2143 64 N/A 8/ 8 2/11 27 SE WRIGHTSVLE 2108 57 64 90/ 19/ 29 1020.8 5 SE WRIGHTSVLE 2108 57 57 80/ 14/ 23 1021.1 225 S CAPE HAT 2150 67 75 20/ 25/ 29 1016.6 9/ 8 7/ 8 41 SE CHARLESTON 2150 63 65 60/ 21/ 23 1019.2 5/ 6 2/11 $$

USA.gov is the U.S. government's official web portal to all federal, state and local government web resources and services.